{"data":{"norad_id":62026,"intl_designator":"2024-213U","name":"STARLINK-32561","alt_names":[],"object_type":"PAYLOAD","status":"ACTIVE","operator":null,"country":"US","launch_date":"2024-11-18","launch_site_code":"AFWTR","launch_vehicle":null,"mission":null,"orbit_class":"UNKNOWN","rcs_meters":null,"size_class":null,"mass_kg":null,"dimensions":null,"purposes":["comms"],"wikipedia_slug":null,"has_3d_model":false,"image_url":null,"decayed_at":null,"tle_current":{"epoch":"2026-05-25T02:19:12.890208Z","epoch_age_seconds":73496,"freshness":"FRESH","line1":"1 62026U 24213U   26145.09667697  .00016749  00000+0  57619-3 0  9993","line2":"2 62026  53.1574 173.1832 0001111  92.1238 267.9890 15.30208631 84852","mean_motion":15.30208631,"eccentricity":0.0001111,"inclination_deg":53.1574,"raan_deg":173.1832,"arg_perigee_deg":92.1238,"mean_anomaly_deg":267.989,"bstar":0.00057619,"rev_number":8485,"period_min":94.104814913961,"perigee_km":474.42789437839,"apogee_km":475.95070348201,"semimajor_km":6853.3262989302,"source":"CELESTRAK","updated_at":"2026-05-25T13:38:19.522772Z"}}}